Weather History for Kingsville NAS, TX

Change the Weather History Date:

Sunday, November 6, 2011

  Actual Average Record
Temperature  
Mean Temperature 78 °F -  
Max Temperature 87 °F 75 °F 91 °F (1996)
Min Temperature 73 °F 56 °F 36 °F (2010)
Cooling Degree Days 14    
Growing Degree Days 28 (Base 50)    
Moisture  
Dew Point 68 °F    
Average Humidity 75    
Maximum Humidity 83    
Minimum Humidity 58    
Precipitation  
Precipitation 0.00 in - - ()
Sea Level Pressure  
Sea Level Pressure 29.93 in    
Wind  
Wind Speed 13 mph (SE)    
Max Wind Speed 23 mph    
Max Gust Speed 30 mph    
Visibility 10 miles    
Events      
Averages and records for this station are not official NWS values.
T = Trace of Precipitation, MM = Missing Value Source: NWS Daily Summary

Daily Weather History Graph

Daily Weather History Graph

Search for Another Location

Airport:

Trip Planner

Search our weather history database for the weather conditions in past years. The results will help you decide how hot, cold, wet, or windy it might be!

Date:

Astronomy

Nov. 06, 2011 Rise Set
Actual Time 6:45 AM CST 5:44 PM CST
Civil Twilight 6:20 AM CST 6:08 PM CST
Nautical Twilight 5:53 AM CST 6:36 PM CST
Astronomical Twilight 5:25 AM CST 7:03 PM CST
Moon 3:14 PM CST (11/6) 3:09 AM CST (11/6)
Length of Visible Light 11h 47m
Length of Day
10h 59m
Waxing Gibbous, 86% of the Moon is Illuminated
Nov 6
Waxing Gibbous
Nov 10
Full
Nov 18
Last Quarter
Nov 25
New
Dec 2
First Quarter

Hourly Weather History & Observations

Time (CST) Temp. Heat Index Dew Point Humidity Pressure Visibility Wind Dir Wind Speed Gust Speed Precip Events Conditions
12:56 AM 73.0 °F - 66.0 °F 79% 29.90 in 10.0 mi SE 9.2 mph - N/A   Scattered Clouds
1:56 AM 73.0 °F - 66.0 °F 79% 29.90 in 10.0 mi SE 10.4 mph - N/A   Overcast
1:56 AM 73.0 °F - 66.0 °F 79% 29.90 in 10.0 mi SE 10.4 mph - N/A   Mostly Cloudy
2:56 AM 73.0 °F - 66.9 °F 81% 29.88 in 10.0 mi SE 13.8 mph - N/A   Partly Cloudy
3:56 AM 73.0 °F - 66.9 °F 81% 29.88 in 10.0 mi SE 13.8 mph - N/A   Scattered Clouds
4:56 AM 73.9 °F - 68.0 °F 82% 29.88 in 10.0 mi SE 12.7 mph - N/A   Overcast
5:35 AM 73.4 °F - 68.0 °F 83% 29.91 in 10.0 mi SE 10.4 mph - N/A   Overcast
5:43 AM 73.4 °F - 68.0 °F 83% 29.91 in 10.0 mi SE 11.5 mph - N/A   Overcast
5:56 AM 73.9 °F - 68.0 °F 82% 29.91 in 10.0 mi SE 10.4 mph - N/A   Overcast
6:12 AM 73.4 °F - 68.0 °F 83% 29.92 in 10.0 mi SE 9.2 mph - N/A   Overcast
6:19 AM 73.4 °F - 68.0 °F 83% 29.92 in 10.0 mi SE 9.2 mph - N/A   Overcast
6:56 AM 75.0 °F - 68.0 °F 79% 29.93 in 10.0 mi SE 10.4 mph - N/A   Overcast
7:12 AM 75.2 °F - 68.0 °F 78% 29.94 in 10.0 mi SE 9.2 mph - N/A   Overcast
7:21 AM 75.2 °F - 68.0 °F 78% 29.94 in 10.0 mi SE 10.4 mph - N/A   Overcast
7:56 AM 75.9 °F - 69.1 °F 79% 29.95 in 10.0 mi SE 11.5 mph - N/A   Overcast
8:14 AM 77.0 °F - 69.8 °F 78% 29.96 in 10.0 mi SE 15.0 mph 19.6 mph N/A   Overcast
8:30 AM 78.8 °F - 69.8 °F 74% 29.96 in 10.0 mi SE 16.1 mph - N/A   Overcast
8:56 AM 79.0 °F - 69.1 °F 72% 29.96 in 10.0 mi SE 16.1 mph 21.9 mph N/A   Overcast
9:56 AM 80.1 °F 82.7 °F 68.0 °F 67% 29.99 in 10.0 mi SSE 16.1 mph - N/A   Overcast
10:56 AM 81.0 °F 83.8 °F 68.0 °F 65% 29.97 in 10.0 mi SE 19.6 mph 28.8 mph N/A   Overcast
11:56 AM 81.0 °F 83.8 °F 68.0 °F 65% 29.96 in 10.0 mi SE 23.0 mph 28.8 mph N/A   Overcast
12:56 PM 84.0 °F 87.0 °F 68.0 °F 58% 29.93 in 10.0 mi SE 20.7 mph 28.8 mph N/A   Mostly Cloudy
1:56 PM 81.0 °F 83.8 °F 68.0 °F 65% 29.91 in 10.0 mi SE 20.7 mph 29.9 mph N/A   Overcast
2:56 PM 80.1 °F 82.7 °F 68.0 °F 67% 29.92 in 10.0 mi SE 20.7 mph 28.8 mph N/A   Overcast
3:09 PM 80.6 °F 83.2 °F 68.0 °F 65% 29.92 in 10.0 mi SE 18.4 mph 27.6 mph N/A   Overcast
3:56 PM 79.3 °F - 68.5 °F 69% 29.91 in 10.0 mi SE 21.9 mph - N/A   Overcast
4:56 PM 78.6 °F - 68.7 °F 72% 29.92 in 10.0 mi SSE 19.6 mph 27.6 mph N/A   Overcast
5:56 PM 77.0 °F - 69.8 °F 78% 29.92 in 10.0 mi North - - N/A   Overcast
6:56 PM 77.2 °F - 68.2 °F 74% 29.96 in 10.0 mi SSE 13.8 mph 21.9 mph N/A   Overcast
7:56 PM 77.5 °F - 69.6 °F 76% 29.97 in 10.0 mi SSE 13.8 mph - N/A   Overcast
8:56 PM 77.5 °F - 68.7 °F 74% 29.98 in 10.0 mi SE 13.8 mph - N/A   Overcast
9:56 PM 77.0 °F - 69.1 °F 76% 29.99 in 10.0 mi SE 12.7 mph - N/A   Overcast
10:56 PM 77.0 °F - 69.1 °F 76% 29.99 in 10.0 mi SE 12.7 mph - N/A   Overcast